This is the latest recevied weather packets stored in our database for station/object OK1KZE-6. If no packets are shown the sender has not sent any weather packets the latest 10 day(s).
| Time | Temp. | Humidity | Pressure | Rain* | Wind** | Luminosity | Snow |
|---|---|---|---|---|---|---|---|
| 1777594808 | 8.89° C | 51% | 1030.3 hPa | - | - | - | - |
| 1777594508 | 8.89° C | 51% | 1030.4 hPa | - | - | - | - |
| 1777594207 | 8.89° C | 51% | 1030.3 hPa | - | - | - | - |
| 1777593908 | 9.44° C | 50% | 1030.4 hPa | - | - | - | - |
| 1777593608 | 9.44° C | 51% | 1030.3 hPa | - | - | - | - |
| 1777593308 | 8.89° C | 52% | 1030.5 hPa | - | - | - | - |
| 1777593008 | 8.89° C | 51% | 1030.5 hPa | - | - | - | - |
| 1777592708 | 10° C | 49% | 1030.4 hPa | - | - | - | - |
| 1777592407 | 10° C | 49% | 1030.2 hPa | - | - | - | - |
| 1777592108 | 10° C | 49% | 1030.4 hPa | - | - | - | - |
| 1777591808 | 10° C | 49% | 1030.2 hPa | - | - | - | - |
| 1777591506 | 10° C | 49% | 1030.4 hPa | - | - | - | - |
| 1777591207 | 10° C | 49% | 1030.3 hPa | - | - | - | - |
| 1777590907 | 10° C | 49% | 1030.3 hPa | - | - | - | - |
| 1777590608 | 10° C | 49% | 1030.1 hPa | - | - | - | - |
| 1777590308 | 10° C | 49% | 1030.4 hPa | - | - | - | - |
| 1777590007 | 10° C | 49% | 1030.2 hPa | - | - | - | - |
| 1777589707 | 10° C | 48% | 1030.1 hPa | - | - | - | - |
| 1777589407 | 10° C | 48% | 1030.2 hPa | - | - | - | - |
| 1777589108 | 10° C | 48% | 1029.9 hPa | - | - | - | - |
| 1777588807 | 10° C | 48% | 1030 hPa | - | - | - | - |
| 1777588208 | 10.56° C | 48% | 1029.8 hPa | - | - | - | - |
| 1777587907 | 10° C | 48% | 1029.9 hPa | - | - | - | - |
| 1777587607 | 10° C | 49% | 1030 hPa | - | - | - | - |
| 1777587307 | 10° C | 49% | 1030 hPa | - | - | - | - |
* Rain since midnight (hover to see other rain measurements)
** Current wind speed in m/s (hover to see current wind gust speed)